YMA7561 YPPH-YPKA

Flight info

Callsign YMA7561
Flight time 1h 47m
Altitude 37000
Route AVNEX Y15 GUGRA Z55 KA
Aircraft A20N/M-SDE2E3FGHIRWXY/LB1

Departure

Time 2026-04-18 04:50
Airport Perth International Airport (YPPH)

Arrival

Time 2026-04-18 06:37
Airport Karratha Airport (YPKA)
Time Latitude Longitude Altitude Speed Heading
2026-04-18 04:46 -31.94273 115.96978 92 ft 0 kts 192°
2026-04-18 04:47 -31.94279 115.96976 92 ft 9 kts 196°
2026-04-18 04:47 -31.94275 115.96924 92 ft 14 kts 318°
2026-04-18 04:47 -31.94241 115.96893 92 ft 19 kts 322°
2026-04-18 04:47 -31.94086 115.96841 92 ft 30 kts 13°
2026-04-18 04:48 -31.93810 115.96917 92 ft 51 kts 14°
2026-04-18 04:48 -31.93403 115.97049 92 ft 69 kts
2026-04-18 04:48 -31.93010 115.97160 92 ft 39 kts 33°
2026-04-18 04:48 -31.92998 115.97431 92 ft 34 kts 105°
2026-04-18 04:49 -31.93065 115.97707 92 ft 33 kts 108°
2026-04-18 04:49 -31.93083 115.97759 92 ft 2 kts 118°
2026-04-18 04:49 -31.93155 115.97780 92 ft 29 kts 224°
2026-04-18 04:49 -31.93179 115.97734 92 ft 21 kts 243°
2026-04-18 04:50 -31.93425 115.97237 92 ft 114 kts 239°
2026-04-18 04:50 -31.93926 115.96197 305 ft 164 kts 239°
2026-04-18 04:50 -31.94519 115.95064 1199 ft 166 kts 235°
2026-04-18 04:50 -31.95161 115.93957 2136 ft 170 kts 237°
2026-04-18 04:51 -31.95799 115.92737 2914 ft 185 kts 239°
2026-04-18 04:51 -31.96484 115.91385 3651 ft 204 kts 239°
2026-04-18 04:51 -31.97254 115.89870 4359 ft 229 kts 240°
2026-04-18 04:51 -31.98103 115.88211 5202 ft 248 kts 240°
2026-04-18 04:52 -31.99019 115.86426 6083 ft 265 kts 241°
2026-04-18 04:52 -31.99972 115.84571 7222 ft 271 kts 241°
2026-04-18 04:52 -32.00834 115.82581 8419 ft 271 kts 255°
2026-04-18 04:52 -32.01075 115.80416 9542 ft 273 kts 273°
2026-04-18 04:53 -32.00834 115.78199 10638 ft 277 kts 278°
2026-04-18 04:53 -32.00512 115.75854 11403 ft 294 kts 278°
2026-04-18 04:53 -32.00169 115.73336 12046 ft 314 kts 278°
2026-04-18 04:53 -31.99810 115.70644 12781 ft 329 kts 278°
2026-04-18 04:54 -31.99437 115.67957 13740 ft 335 kts 279°
2026-04-18 04:54 -31.98970 115.65284 14742 ft 338 kts 281°
2026-04-18 04:54 -31.98482 115.62583 15701 ft 342 kts 281°
2026-04-18 04:54 -31.97982 115.59836 16635 ft 346 kts 281°
2026-04-18 04:55 -31.97479 115.57069 17533 ft 350 kts 281°
2026-04-18 04:55 -31.96908 115.54270 18413 ft 355 kts 284°
2026-04-18 04:55 -31.96109 115.51506 19272 ft 359 kts 289°
2026-04-18 04:56 -31.93899 115.46139 20934 ft 368 kts 295°
2026-04-18 04:56 -31.92578 115.43432 21727 ft 374 kts 303°
2026-04-18 04:56 -31.90660 115.41196 22475 ft 385 kts 320°
2026-04-18 04:56 -31.88229 115.39696 23218 ft 396 kts 335°
2026-04-18 04:57 -31.85582 115.38686 23937 ft 401 kts 338°
2026-04-18 04:57 -31.82895 115.37718 24602 ft 406 kts 338°
2026-04-18 04:57 -31.80172 115.36731 25264 ft 410 kts 338°
2026-04-18 04:57 -31.77437 115.35725 25873 ft 414 kts 337°
2026-04-18 04:58 -31.74582 115.34861 26442 ft 424 kts 345°
2026-04-18 04:58 -31.71535 115.34498 27033 ft 434 kts 354°
2026-04-18 04:58 -31.68457 115.34723 27601 ft 444 kts
2026-04-18 04:58 -31.65381 115.35561 28133 ft 454 kts 14°
2026-04-18 04:59 -31.62334 115.37052 28665 ft 463 kts 22°
2026-04-18 04:59 -31.59423 115.38810 29248 ft 466 kts 24°
2026-04-18 04:59 -31.56549 115.40607 29971 ft 464 kts 24°
2026-04-18 04:59 -31.53700 115.42382 30645 ft 462 kts 24°
2026-04-18 05:00 -31.50789 115.44178 31264 ft 462 kts 24°
2026-04-18 05:00 -31.47901 115.45945 31841 ft 462 kts 23°
2026-04-18 05:00 -31.45026 115.47694 32361 ft 463 kts 23°
2026-04-18 05:00 -31.42141 115.49442 32898 ft 463 kts 23°
2026-04-18 05:01 -31.39256 115.51191 33419 ft 463 kts 23°
2026-04-18 05:01 -31.36374 115.52937 33929 ft 463 kts 22°
2026-04-18 05:01 -31.33453 115.54708 34440 ft 461 kts 22°
2026-04-18 05:01 -31.30567 115.56453 34930 ft 460 kts 22°
2026-04-18 05:02 -31.27704 115.58179 35365 ft 460 kts 22°
2026-04-18 05:02 -31.24839 115.59904 35766 ft 461 kts 21°
2026-04-18 05:02 -31.21930 115.61650 36111 ft 463 kts 21°
2026-04-18 05:02 -31.19017 115.63398 36403 ft 465 kts 21°
2026-04-18 05:03 -31.16076 115.65162 36698 ft 468 kts 20°
2026-04-18 05:03 -31.13124 115.66935 36967 ft 469 kts 20°
2026-04-18 05:03 -31.07156 115.70515 37053 ft 471 kts 20°
2026-04-18 05:04 -31.01221 115.74073 37046 ft 471 kts 20°
2026-04-18 05:04 -30.95255 115.77651 37045 ft 470 kts 20°
2026-04-18 05:05 -30.89316 115.81197 37050 ft 470 kts 20°
2026-04-18 05:05 -30.83327 115.84177 37050 ft 464 kts 11°
2026-04-18 05:06 -30.77123 115.86152 37049 ft 454 kts
2026-04-18 05:06 -30.70862 115.87127 37054 ft 449 kts 356°
2026-04-18 05:07 -30.64596 115.87746 37051 ft 450 kts 356°
2026-04-18 05:07 -30.58312 115.88379 37057 ft 450 kts 356°
2026-04-18 05:08 -30.52043 115.89017 37050 ft 450 kts 356°
2026-04-18 05:08 -30.45768 115.89661 37052 ft 450 kts 356°
2026-04-18 05:09 -30.39505 115.90304 37053 ft 449 kts 356°
2026-04-18 05:09 -30.33257 115.90946 37052 ft 449 kts 356°
2026-04-18 05:10 -30.26965 115.91588 37053 ft 449 kts 356°
2026-04-18 05:10 -30.20717 115.92228 37051 ft 448 kts 356°
2026-04-18 05:11 -30.14411 115.92871 37048 ft 448 kts 356°
2026-04-18 05:11 -30.08183 115.93508 37051 ft 448 kts 356°
2026-04-18 05:12 -30.01974 115.94139 37057 ft 447 kts 356°
2026-04-18 05:12 -29.95736 115.94773 37059 ft 447 kts 356°
2026-04-18 05:13 -29.89532 115.95407 37055 ft 447 kts 356°
2026-04-18 05:13 -29.83318 115.96035 37060 ft 447 kts 356°
2026-04-18 05:14 -29.77095 115.96666 37052 ft 447 kts 356°
2026-04-18 05:14 -29.70881 115.97296 37054 ft 447 kts 356°
2026-04-18 05:15 -29.64661 115.97923 37050 ft 448 kts 356°
2026-04-18 05:15 -29.58435 115.98554 37051 ft 447 kts 356°
2026-04-18 05:16 -29.52210 115.99183 37049 ft 447 kts 356°
2026-04-18 05:16 -29.45998 115.99809 37050 ft 447 kts 356°
2026-04-18 05:17 -29.39807 116.00434 37050 ft 447 kts 356°
2026-04-18 05:17 -29.33591 116.01061 37045 ft 446 kts 356°
2026-04-18 05:18 -29.27386 116.01687 37044 ft 447 kts 356°
2026-04-18 05:18 -29.21169 116.02311 37044 ft 447 kts 356°
2026-04-18 05:19 -29.14973 116.02780 37046 ft 446 kts 354°
2026-04-18 05:19 -29.08769 116.03185 37043 ft 446 kts 354°
2026-04-18 05:20 -29.02572 116.03601 37042 ft 445 kts 354°
2026-04-18 05:20 -28.96373 116.04024 37041 ft 445 kts 354°
2026-04-18 05:21 -28.90181 116.04449 37040 ft 445 kts 354°
2026-04-18 05:21 -28.83964 116.04877 37041 ft 445 kts 354°
2026-04-18 05:22 -28.77751 116.05305 37040 ft 446 kts 354°
2026-04-18 05:22 -28.71564 116.05729 37039 ft 445 kts 354°
2026-04-18 05:23 -28.65362 116.06154 37039 ft 445 kts 354°
2026-04-18 05:23 -28.59167 116.06579 37040 ft 445 kts 354°
2026-04-18 05:24 -28.52977 116.07003 37038 ft 445 kts 354°
2026-04-18 05:24 -28.46770 116.07427 37038 ft 445 kts 354°
2026-04-18 05:25 -28.40582 116.07851 37037 ft 445 kts 354°
2026-04-18 05:25 -28.34392 116.08271 37038 ft 444 kts 354°
2026-04-18 05:26 -28.28185 116.08695 37037 ft 444 kts 354°
2026-04-18 05:26 -28.21991 116.09115 37037 ft 444 kts 354°
2026-04-18 05:27 -28.15804 116.09537 37036 ft 444 kts 353°
2026-04-18 05:27 -28.09624 116.09956 37037 ft 443 kts 353°
2026-04-18 05:28 -28.03450 116.10376 37036 ft 444 kts 353°
2026-04-18 05:28 -27.97258 116.10796 37036 ft 444 kts 353°
2026-04-18 05:29 -27.91072 116.11217 37036 ft 443 kts 353°
2026-04-18 05:29 -27.84908 116.11635 37036 ft 443 kts 353°
2026-04-18 05:30 -27.78742 116.12053 37037 ft 442 kts 353°
2026-04-18 05:30 -27.72580 116.12469 37037 ft 442 kts 353°
2026-04-18 05:31 -27.66430 116.12879 37037 ft 442 kts 352°
2026-04-18 05:31 -27.60275 116.13288 37035 ft 442 kts 352°
2026-04-18 05:32 -27.54131 116.13700 37035 ft 442 kts 352°
2026-04-18 05:32 -27.47985 116.14113 37035 ft 441 kts 352°
2026-04-18 05:33 -27.41833 116.14524 37033 ft 441 kts 351°
2026-04-18 05:33 -27.35694 116.14935 37033 ft 441 kts 351°
2026-04-18 05:34 -27.29564 116.15342 37034 ft 441 kts 351°
2026-04-18 05:34 -27.23430 116.15753 37032 ft 441 kts 351°
2026-04-18 05:35 -27.17303 116.16165 37030 ft 440 kts 351°
2026-04-18 05:35 -27.11184 116.16570 37026 ft 440 kts 350°
2026-04-18 05:36 -27.05049 116.16979 37026 ft 439 kts 350°
2026-04-18 05:36 -26.98929 116.17388 37025 ft 438 kts 350°
2026-04-18 05:37 -26.92814 116.17793 37024 ft 439 kts 349°
2026-04-18 05:37 -26.86701 116.18198 37027 ft 439 kts 349°
2026-04-18 05:38 -26.80579 116.18601 37023 ft 439 kts 349°
2026-04-18 05:38 -26.74480 116.19007 37021 ft 438 kts 349°
2026-04-18 05:39 -26.68388 116.19410 37018 ft 438 kts 349°
2026-04-18 05:39 -26.62283 116.19814 37024 ft 438 kts 349°
2026-04-18 05:40 -26.56188 116.20213 37021 ft 439 kts 349°
2026-04-18 05:40 -26.50085 116.20617 37021 ft 439 kts 349°
2026-04-18 05:41 -26.43986 116.21021 37024 ft 438 kts 349°
2026-04-18 05:41 -26.37893 116.21421 37016 ft 437 kts 349°
2026-04-18 05:42 -26.31805 116.21819 37022 ft 437 kts 349°
2026-04-18 05:42 -26.25722 116.22222 37013 ft 437 kts 349°
2026-04-18 05:43 -26.19617 116.22619 37022 ft 437 kts 349°
2026-04-18 05:43 -26.13519 116.23019 37016 ft 438 kts 349°
2026-04-18 05:44 -26.07427 116.23419 37011 ft 437 kts 349°
2026-04-18 05:44 -26.01329 116.23819 37010 ft 438 kts 348°
2026-04-18 05:45 -25.95244 116.24214 37016 ft 437 kts 348°
2026-04-18 05:45 -25.89167 116.24609 37016 ft 436 kts 349°
2026-04-18 05:46 -25.83083 116.25005 37017 ft 437 kts 349°
2026-04-18 05:46 -25.76997 116.25401 37018 ft 436 kts 349°
2026-04-18 05:47 -25.70923 116.25795 37019 ft 437 kts 349°
2026-04-18 05:47 -25.64833 116.26192 37020 ft 437 kts 349°
2026-04-18 05:48 -25.58741 116.26586 37020 ft 437 kts 349°
2026-04-18 05:48 -25.52642 116.26982 37021 ft 437 kts 349°
2026-04-18 05:49 -25.46554 116.27377 37024 ft 436 kts 349°
2026-04-18 05:49 -25.40468 116.27771 37018 ft 437 kts 349°
2026-04-18 05:50 -25.34378 116.28165 37013 ft 436 kts 349°
2026-04-18 05:50 -25.28305 116.28556 37007 ft 436 kts 350°
2026-04-18 05:51 -25.22219 116.28949 37003 ft 436 kts 350°
2026-04-18 05:51 -25.16144 116.29340 37001 ft 436 kts 350°
2026-04-18 05:52 -25.10057 116.29733 37002 ft 437 kts 350°
2026-04-18 05:52 -25.03976 116.30126 37003 ft 436 kts 351°
2026-04-18 05:53 -24.97891 116.30514 37003 ft 437 kts 351°
2026-04-18 05:53 -24.91792 116.30908 37000 ft 436 kts 351°
2026-04-18 05:54 -24.85719 116.31296 36998 ft 435 kts 351°
2026-04-18 05:54 -24.79639 116.31684 36996 ft 436 kts 351°
2026-04-18 05:55 -24.73558 116.32075 36991 ft 437 kts 351°
2026-04-18 05:55 -24.67464 116.32463 36990 ft 436 kts 351°
2026-04-18 05:56 -24.61393 116.32853 36992 ft 435 kts 352°
2026-04-18 05:56 -24.55330 116.33240 36990 ft 436 kts 351°
2026-04-18 05:57 -24.46227 116.33821 36987 ft 436 kts 352°
2026-04-18 05:58 -24.40138 116.34206 36989 ft 436 kts 352°
2026-04-18 05:58 -24.34064 116.34596 36988 ft 435 kts 352°
2026-04-18 05:59 -24.27995 116.34981 36990 ft 435 kts 352°
2026-04-18 05:59 -24.21916 116.35368 36990 ft 436 kts 352°
2026-04-18 06:00 -24.15861 116.35754 36989 ft 435 kts 352°
2026-04-18 06:00 -24.09798 116.36137 36989 ft 435 kts 353°
2026-04-18 06:01 -24.03740 116.36523 36988 ft 435 kts 353°
2026-04-18 06:01 -23.97666 116.36907 36985 ft 435 kts 353°
2026-04-18 06:02 -23.91579 116.37295 36981 ft 436 kts 353°
2026-04-18 06:02 -23.85504 116.37683 36980 ft 436 kts 353°
2026-04-18 06:03 -23.79439 116.37927 36981 ft 434 kts 351°
2026-04-18 06:03 -23.73371 116.38047 36981 ft 434 kts 351°
2026-04-18 06:04 -23.67296 116.38169 36983 ft 435 kts 351°
2026-04-18 06:04 -23.61218 116.38295 36982 ft 435 kts 351°
2026-04-18 06:05 -23.55137 116.38420 36981 ft 435 kts 351°
2026-04-18 06:05 -23.49038 116.38546 36976 ft 435 kts 351°
2026-04-18 06:06 -23.42964 116.38669 36977 ft 436 kts 351°
2026-04-18 06:06 -23.36890 116.38796 36970 ft 436 kts 351°
2026-04-18 06:07 -23.30804 116.38921 36964 ft 436 kts 352°
2026-04-18 06:07 -23.24735 116.39044 36960 ft 435 kts 352°
2026-04-18 06:08 -23.18526 116.39172 36949 ft 436 kts 352°
2026-04-18 06:08 -23.12435 116.39298 36941 ft 436 kts 352°
2026-04-18 06:09 -23.06352 116.39423 36930 ft 437 kts 352°
2026-04-18 06:09 -23.00259 116.39548 36920 ft 437 kts 352°
2026-04-18 06:10 -23.00047 116.39553 36920 ft 437 kts 352°
2026-04-18 06:10 -22.95954 116.39635 36922 ft 436 kts 352°
2026-04-18 06:11 -22.89867 116.39760 36925 ft 436 kts 352°
2026-04-18 06:11 -22.83793 116.39884 36925 ft 436 kts 352°
2026-04-18 06:12 -22.77700 116.40008 36926 ft 436 kts 352°
2026-04-18 06:12 -22.71620 116.40134 36931 ft 436 kts 353°
2026-04-18 06:13 -22.65524 116.40257 36930 ft 435 kts 353°
2026-04-18 06:13 -22.59452 116.40380 36933 ft 435 kts 353°
2026-04-18 06:14 -22.53360 116.40504 36934 ft 436 kts 353°
2026-04-18 06:14 -22.47798 116.40618 36944 ft 435 kts 353°
2026-04-18 06:15 -22.41730 116.40741 36954 ft 435 kts 353°
2026-04-18 06:15 -22.35647 116.40864 36954 ft 435 kts 354°
2026-04-18 06:16 -22.29586 116.40989 36169 ft 435 kts 353°
2026-04-18 06:16 -22.26538 116.41049 35001 ft 442 kts 353°
2026-04-18 06:16 -22.23436 116.41107 33659 ft 450 kts 354°
2026-04-18 06:16 -22.20262 116.41167 32337 ft 458 kts 354°
2026-04-18 06:17 -22.17049 116.41230 31084 ft 465 kts 354°
2026-04-18 06:17 -22.13800 116.41294 29881 ft 469 kts 354°
2026-04-18 06:17 -22.10535 116.41361 28973 ft 465 kts 355°
2026-04-18 06:17 -22.07324 116.41433 28303 ft 457 kts 355°
2026-04-18 06:18 -22.04151 116.41503 27640 ft 451 kts 355°
2026-04-18 06:18 -22.01029 116.41570 26997 ft 444 kts 355°
2026-04-18 06:18 -21.97953 116.41634 26392 ft 438 kts 355°
2026-04-18 06:18 -21.94918 116.41698 25781 ft 432 kts 354°
2026-04-18 06:19 -21.91921 116.41759 25181 ft 427 kts 355°
2026-04-18 06:19 -21.88946 116.41816 24590 ft 422 kts 355°
2026-04-18 06:19 -21.86017 116.41875 24006 ft 417 kts 355°
2026-04-18 06:19 -21.83121 116.41933 23434 ft 412 kts 355°
2026-04-18 06:20 -21.80262 116.41991 22856 ft 408 kts 355°
2026-04-18 06:20 -21.77423 116.42049 22267 ft 405 kts 355°
2026-04-18 06:20 -21.74613 116.42104 21678 ft 401 kts 355°
2026-04-18 06:20 -21.71819 116.42160 21086 ft 399 kts 355°
2026-04-18 06:21 -21.69047 116.42213 20477 ft 396 kts 356°
2026-04-18 06:21 -21.66284 116.42269 19868 ft 394 kts 356°
2026-04-18 06:21 -21.63546 116.42324 19283 ft 390 kts 356°
2026-04-18 06:21 -21.60828 116.42380 18685 ft 388 kts 357°
2026-04-18 06:22 -21.58124 116.42434 18095 ft 385 kts 357°
2026-04-18 06:22 -21.55451 116.42489 17508 ft 382 kts 357°
2026-04-18 06:22 -21.52787 116.42544 16915 ft 380 kts 357°
2026-04-18 06:22 -21.50148 116.42599 16337 ft 377 kts 357°
2026-04-18 06:23 -21.47535 116.42652 15782 ft 373 kts 358°
2026-04-18 06:23 -21.44938 116.42704 15231 ft 370 kts 358°
2026-04-18 06:23 -21.42373 116.42755 14688 ft 366 kts 359°
2026-04-18 06:23 -21.39833 116.42915 14145 ft 364 kts
2026-04-18 06:24 -21.37325 116.43297 13611 ft 361 kts
2026-04-18 06:24 -21.34863 116.43855 13071 ft 358 kts 10°
2026-04-18 06:24 -21.32442 116.44438 12563 ft 355 kts 11°
2026-04-18 06:24 -21.30037 116.45021 12044 ft 351 kts 11°
2026-04-18 06:25 -21.27652 116.45596 11525 ft 348 kts 12°
2026-04-18 06:25 -21.25292 116.46164 11002 ft 345 kts 12°
2026-04-18 06:25 -21.22980 116.46722 10661 ft 334 kts 12°
2026-04-18 06:25 -21.20749 116.47261 10449 ft 320 kts 12°
2026-04-18 06:26 -21.18605 116.47777 10264 ft 306 kts 12°
2026-04-18 06:26 -21.16566 116.48267 10101 ft 293 kts 12°
2026-04-18 06:26 -21.14588 116.48742 9791 ft 288 kts 13°
2026-04-18 06:26 -21.12635 116.49209 9380 ft 285 kts 13°
2026-04-18 06:27 -21.10701 116.49673 8983 ft 283 kts 13°
2026-04-18 06:27 -21.08783 116.50133 8589 ft 281 kts 13°
2026-04-18 06:27 -21.06880 116.50590 8212 ft 278 kts 13°
2026-04-18 06:27 -21.04992 116.51043 7832 ft 276 kts 14°
2026-04-18 06:28 -21.03124 116.51491 7438 ft 274 kts 14°
2026-04-18 06:28 -21.01263 116.51937 7051 ft 272 kts 14°
2026-04-18 06:28 -20.99407 116.52382 6682 ft 271 kts 14°
2026-04-18 06:28 -20.97569 116.52821 6322 ft 269 kts 14°
2026-04-18 06:29 -20.95736 116.53259 5948 ft 268 kts 14°
2026-04-18 06:29 -20.93911 116.53696 5574 ft 266 kts 14°
2026-04-18 06:29 -20.92095 116.54131 5194 ft 265 kts 14°
2026-04-18 06:29 -20.90295 116.54562 4823 ft 264 kts 14°
2026-04-18 06:30 -20.88503 116.54992 4455 ft 263 kts 14°
2026-04-18 06:30 -20.86727 116.55416 4193 ft 256 kts 14°
2026-04-18 06:30 -20.85022 116.55822 4068 ft 244 kts 14°
2026-04-18 06:30 -20.83400 116.56209 3973 ft 232 kts 14°
2026-04-18 06:31 -20.81854 116.56577 3880 ft 220 kts 14°
2026-04-18 06:31 -20.80373 116.56940 3693 ft 216 kts 15°
2026-04-18 06:31 -20.78905 116.57320 3425 ft 217 kts 15°
2026-04-18 06:31 -20.77438 116.57701 3204 ft 214 kts 15°
2026-04-18 06:32 -20.76037 116.58063 3175 ft 200 kts 16°
2026-04-18 06:32 -20.74690 116.58410 3161 ft 197 kts 16°
2026-04-18 06:32 -20.73467 116.58889 3041 ft 181 kts 43°
2026-04-18 06:32 -20.72898 116.60015 3010 ft 176 kts 82°
2026-04-18 06:33 -20.72811 116.61300 2894 ft 168 kts 89°
2026-04-18 06:33 -20.72781 116.62569 2596 ft 161 kts 89°
2026-04-18 06:33 -20.72723 116.63735 2355 ft 153 kts 86°
2026-04-18 06:33 -20.72628 116.64854 2150 ft 143 kts 85°
2026-04-18 06:34 -20.72523 116.65889 1983 ft 131 kts 84°
2026-04-18 06:34 -20.72418 116.66870 1805 ft 130 kts 83°
2026-04-18 06:34 -20.72313 116.67862 1628 ft 126 kts 81°
2026-04-18 06:34 -20.72215 116.68781 1453 ft 124 kts 81°
2026-04-18 06:35 -20.72116 116.69696 1300 ft 124 kts 81°
2026-04-18 06:35 -20.72020 116.70613 1125 ft 123 kts 82°
2026-04-18 06:35 -20.71924 116.71528 961 ft 124 kts 82°
2026-04-18 06:35 -20.71827 116.72443 791 ft 124 kts 82°
2026-04-18 06:36 -20.71730 116.73365 638 ft 126 kts 82°
2026-04-18 06:36 -20.71631 116.74301 467 ft 126 kts 81°
2026-04-18 06:36 -20.71532 116.75240 303 ft 127 kts 81°
2026-04-18 06:36 -20.71434 116.76200 134 ft 128 kts 80°
2026-04-18 06:37 -20.71338 116.77130 34 ft 119 kts 79°
2026-04-18 06:37 -20.71251 116.77836 24 ft 67 kts 85°
2026-04-18 06:37 -20.71223 116.78132 24 ft 23 kts 67°
2026-04-18 06:37 -20.71090 116.78177 23 ft 26 kts 330°
2026-04-18 06:38 -20.71065 116.77913 24 ft 47 kts 263°
2026-04-18 06:38 -20.71110 116.77487 27 ft 61 kts 267°
2026-04-18 06:38 -20.71146 116.77122 30 ft 30 kts 271°
2026-04-18 06:38 -20.71027 116.76983 30 ft 22 kts 316°
2026-04-18 06:39 -20.70959 116.76955 30 ft 4 kts 13°
2026-04-18 06:39 -20.70954 116.76959 29 ft 0 kts 46°